[[{"header":{"parameterUnit":"m.s-1","parameterCategory":1,"la1":30.2991,"la2":30.254,"lo1":-89.0895,"lo2":-89.0444,"dy":0.0017,"dx":0.0017,"nx":28,"ny":28,"refTime":"2024-08-30T09:00:00:Z","depth":0,"parameterNumber":2,"parameterNumberName":"U-component_of_WINDS"},"data":[0,0,0,0,0,0,0,0,0,0,0,0,0,0,0,0,0,0,0,0,0,0,0,0,0,0,0,0,0,0,0,0,0,0,0,0,0,0,0,0,0,0,0,0,0,0,0,0,0,0,0,0,0,0,0,0,0,0,-3.8811,-3.8812,0,-3.89,-3.8901,-3.8902,-3.8874,-3.8872,-3.887,-3.8868,-3.8957,-3.8961,-3.8965,0,0,0,0,0,0,0,0,0,0,0,0,0,-3.8613,-3.8617,-3.8811,-3.8812,-3.8813,-3.89,-3.8901,-3.8902,-3.8874,-3.8872,-3.8869,-3.8867,-3.8955,-3.896,-3.8965,0,0,0,0,0,0,0,0,0,0,0,0,0,-3.8701,-3.8618,-3.881,-3.8809,-3.881,-3.89,-3.8901,-3.8903,-3.8874,-3.8871,-3.8869,-3.8866,-3.8954,-3.896,-3.8966,-3.9062,0,0,-3.8985,-3.8988,0,0,0,0,0,0,0,0,-3.8696,-3.8708,-3.8808,-3.8809,-3.881,-3.8873,-3.8864,-3.8956,-3.8875,-3.885,-3.8868,-3.8865,-3.8931,-3.8939,-3.8962,-3.9066,-3.9069,-3.8986,-3.8989,-3.8992,-3.8994,0,0,0,0,0,0,0,-3.869,-3.8704,-3.8846,-3.881,-3.8811,-3.8804,-3.8813,-3.8881,-3.8905,-3.8852,-3.885,-3.8861,-3.8931,-3.8956,-3.8964,-3.9071,-3.8985,-3.8991,-3.8995,-3.8997,-3.9257,-3.926,0,0,0,0,0,0,-3.8683,-3.8699,-3.8843,-3.8849,-3.8745,-3.881,-3.882,-3.8856,-3.8904,-3.8909,-3.8863,-3.8859,-3.8947,-3.8957,-3.8967,-3.9081,-3.8992,-3.8998,-3.9001,-3.9254,-3.9258,-3.9261,0,0,0,0,0,0,-3.8679,-3.8696,-3.8839,-3.8773,-3.8791,-3.8816,-3.8856,-3.8859,-3.8884,-3.8913,-3.8917,-3.8885,-3.8945,-3.8958,-3.9038,-3.9083,-3.9001,-3.9006,-3.925,-3.9255,-3.926,-3.931,0,0,0,0,0,0,-3.8674,-3.8695,-3.8732,-3.8774,-3.8795,-3.891,-3.8859,-3.8863,-3.8895,-3.889,-3.8934,-3.8939,-3.8944,-3.9029,-3.9044,-3.909,-3.9011,-3.9246,-3.9253,-3.9258,-3.9304,-3.9316,-3.9325,0,0,0,0,0,-3.8667,-3.8742,-3.8734,-3.8751,-3.8841,-3.8913,-3.8924,-3.8929,-3.8899,-3.8935,-3.8955,-3.8937,-3.9077,-3.9038,-3.9055,-3.9103,-3.9243,-3.9251,-3.9258,-3.9299,-3.9313,-3.9325,0,0,0,0,0,0,-3.8702,-3.8747,-3.8739,-3.883,-3.8868,-3.8908,-3.8954,-3.8944,-3.899,-3.8984,-3.8988,-3.8998,-3.908,-3.91,-3.9056,-3.9198,-3.9156,-3.9166,-3.9181,-3.9195,-3.9205,-3.9197,-3.9016,0,0,0,0,0,-3.8721,-3.8776,-3.8812,-3.8889,-3.8909,-3.8928,-3.896,-3.8961,-3.8999,-3.9015,-3.904,-3.9078,-3.913,-3.9164,-3.9214,-3.9308,-3.9317,-3.935,-3.9361,-3.937,-3.9378,-3.9428,-3.9443,-3.9285,-3.9285,-3.9285,0,0,-3.8759,-3.8791,-3.8825,-3.8897,-3.8926,-3.8982,-3.8942,-3.9003,-3.9044,-3.9024,-3.91,-3.9121,-3.9164,-3.9251,-3.9291,-3.927,-3.9424,-3.9379,-3.9385,-3.9389,-3.9437,-3.9452,-3.9465,-3.929,-3.9289,-3.9288,0,0,-3.8857,-3.8888,-3.8954,-3.8985,-3.9031,-3.9044,-3.906,-3.9103,-3.9115,-3.9193,-3.9179,-3.9229,-3.9319,-3.935,-3.9377,-3.949,-3.9475,-3.9507,-3.9561,-3.961,-3.9622,-3.9633,-3.9671,-3.9685,-3.9515,-3.9516,-3.9516,0,-3.8898,-3.8983,-3.899,-3.9052,-3.9084,-3.9071,-3.9138,-3.9168,-3.9227,-3.9249,-3.9226,-3.9339,-3.9367,-3.9461,-3.9489,-3.9513,-3.953,-3.9499,-3.962,-3.9631,-3.9642,-3.9678,-3.9692,-3.9519,-3.9518,-3.9518,-3.9518,0,-3.903,-3.9089,-3.9138,-3.9197,-3.9234,-3.9299,-3.9315,-3.9353,-3.9352,-3.9367,-3.9447,-3.948,-3.9536,-3.956,-3.9559,-3.9654,-3.964,-3.9619,-3.9575,-3.966,-3.9694,-3.9708,-3.9524,-3.9522,-3.9521,-3.9521,0,0,-3.9149,-3.9213,-3.923,-3.9257,-3.9308,-3.9353,-3.9417,-3.9474,-3.9505,-3.9547,-3.96,-3.9679,-3.966,-3.9691,-3.9694,-3.9738,-3.9823,-3.9711,-3.9712,-3.9728,-3.9928,-3.9941,-3.9957,-3.9815,-3.9818,-3.982,-3.9923,0,-3.9249,-3.9362,-3.9372,-3.9473,-3.9527,-3.9517,-3.9573,-3.961,-3.9627,-3.9675,-3.9694,-3.9749,-3.9721,-3.974,-3.9783,-3.9803,-3.9862,-3.9796,-3.9862,-3.9865,-3.9848,-3.9975,-3.9989,-4.0084,-3.9937,-3.9939,-3.9941,0,-3.938,-3.9427,-3.9534,-3.9578,-3.9601,-3.9651,-3.9703,-3.975,-3.9792,-3.9802,-3.9838,-3.9836,-3.9901,-3.9859,-3.9949,-3.9904,-3.9932,-3.9947,-3.9951,-3.9954,-3.9905,-3.9979,-4.0115,-4.0128,-3.9962,-3.9961,-3.9959,0,-3.9452,-3.9543,-3.9619,-3.9642,-3.9696,-3.9731,-3.9755,-3.9794,-3.9828,-3.9874,-3.9896,-3.9949,-3.9978,-4.0019,-4.0031,-3.9999,-4.012,-4.0079,-4.0128,-4.0128,-4.0151,-4.0148,-4.029,-4.0175,-4.0175,-4.0174,-4.0174,0,-3.9561,-3.9626,-3.9652,-3.9698,-3.9771,-3.9782,-3.9854,-3.9876,-3.9912,-3.9961,-3.9957,-4.0004,-4.0019,-4.0068,-4.0078,-4.015,-4.0164,-4.0173,-4.0174,-4.0171,-4.0169,-4.0187,-4.0179,-4.0178,-4.0177,-4.0177,-4.0176,0,-3.9652,-3.9673,-3.9754,-3.9799,-3.9812,-3.9864,-3.9902,-3.9946,-3.9964,-4.0027,-4.0042,-4.007,-4.0128,-4.0145,-4.0215,-4.0222,-4.0306,-4.0303,-4.0291,-4.029,-4.0337,-4.0332,-4.0492,-4.0513,-4.0387,-4.0388,-4.0389,0,-3.9718,-3.9768,-3.9819,-3.9853,-3.9878,-3.9933,-3.9967,-3.9981,-4.0017,-4.007,-4.0108,-4.0166,-4.0212,-4.0305,-4.0331,-4.0385,-4.0381,-4.0434,-4.0388,-4.0384,-4.0378,-4.0374,-4.0378,-4.0441,-4.0442,-4.0443,-4.0444,0,-3.9833,-3.9841,-3.9891,-3.9945,-3.9987,-4.003,-4.0072,-4.0099,-4.0119,-4.016,-4.022,-4.0256,-4.0328,-4.0385,-4.044,-4.0464,-4.0457,-4.0459,-4.0472,-4.0468,-4.0458,-4.0462,-4.0311,-4.0454,-4.0453,-4.0452,-4.0452,-4.0451,-3.9911,-3.9955,-3.9998,-4.0054,-4.0088,-4.0127,-4.0171,-4.0195,-4.0245,-4.0305,-4.0311,-4.0375,-4.0417,-4.049,-4.0518,-4.0568,-4.0552,-4.0573,-4.0577,-4.0581,-4.0584,-4.0454,-4.0578,-4.0578,-4.0578,-4.0578,-4.0577,0,-4.0023,-4.0051,-4.0103,-4.0161,-4.0206,-4.0198,-4.0244,-4.0281,-4.0338,-4.0379,-4.0425,-4.0494,-4.055,-4.0581,-4.0637,-4.0671,-4.0669,-4.0685,-4.0681,-4.0686,-4.0596,-4.0577,-4.0685,-4.0685,-4.0685,-4.0685,-4.0685,-4.0685,-4.0086,-4.0159,-4.0173,-4.0263,-4.029,-4.0353,-4.038,-4.0417,-4.0449,-4.0526,-4.0573,-4.0594,-4.063,-4.0689,-4.074,-4.0748,-4.0767,-4.0784,-4.079,-4.0704,-4.0692,-4.0682,-4.0664,-4.0789,-4.0789,-4.0876,-4.0876,-4.0877]},{"header":{"parameterUnit":"m.s-1","parameterCategory":1,"la1":30.2991,"la2":30.254,"lo1":-89.0895,"lo2":-89.0444,"dy":0.0017,"dx":0.0017,"nx":28,"ny":28,"refTime":"2024-08-30T09:00:00:Z","depth":0,"parameterNumber":3,"parameterNumberName":"V-component_of_WINDS"},"data":[0,0,0,0,0,0,0,0,0,0,0,0,0,0,0,0,0,0,0,0,0,0,0,0,0,0,0,0,0,0,0,0,0,0,0,0,0,0,0,0,0,0,0,0,0,0,0,0,0,0,0,0,0,0,0,0,0,0,2.4373,2.4373,0,2.4419,2.4419,2.442,2.4374,2.4372,2.437,2.4369,2.4412,2.4415,2.4418,0,0,0,0,0,0,0,0,0,0,0,0,0,2.4243,2.4246,2.4373,2.4373,2.4374,2.4419,2.4419,2.442,2.4374,2.4372,2.437,2.4368,2.4411,2.4415,2.4418,0,0,0,0,0,0,0,0,0,0,0,0,0,2.4295,2.4247,2.4373,2.4357,2.4356,2.4419,2.4419,2.442,2.4375,2.4372,2.4369,2.4367,2.441,2.4414,2.4419,2.4499,0,0,2.4432,2.4433,0,0,0,0,0,0,0,0,2.4292,2.43,2.4358,2.4358,2.4357,2.4388,2.439,2.4446,2.4375,2.4367,2.4369,2.4365,2.4406,2.4411,2.4425,2.4501,2.4503,2.4432,2.4435,2.4436,2.4438,0,0,0,0,0,0,0,2.4289,2.4298,2.4391,2.4359,2.4358,2.4346,2.4351,2.44,2.4401,2.4368,2.4365,2.4371,2.4405,2.4421,2.4426,2.4503,2.4432,2.4436,2.4438,2.444,2.4648,2.465,0,0,0,0,0,0,2.4287,2.4295,2.4389,2.4392,2.4318,2.4351,2.4356,2.4381,2.44,2.4401,2.4373,2.4369,2.4415,2.4421,2.4427,2.4522,2.4436,2.444,2.4443,2.4645,2.4648,2.4651,0,0,0,0,0,0,2.4285,2.4296,2.4387,2.4343,2.4354,2.4356,2.4384,2.4383,2.4399,2.4405,2.4404,2.4389,2.4413,2.4421,2.4482,2.4523,2.4442,2.4446,2.4641,2.4646,2.465,2.4713,0,0,0,0,0,0,2.4281,2.4296,2.4326,2.4344,2.4356,2.4442,2.4387,2.4386,2.4406,2.4401,2.442,2.442,2.4412,2.4475,2.4486,2.4527,2.4449,2.4637,2.4643,2.4648,2.4707,2.4719,2.4729,0,0,0,0,0,2.4277,2.4341,2.4328,2.434,2.4395,2.4444,2.4451,2.4441,2.441,2.4441,2.4445,2.4419,2.4517,2.4482,2.4493,2.4537,2.4635,2.4641,2.4648,2.4702,2.4716,2.4729,0,0,0,0,0,0,2.4327,2.4343,2.4329,2.4401,2.4422,2.4437,2.4475,2.4457,2.4486,2.4479,2.4465,2.447,2.4534,2.4541,2.4502,2.4616,2.4571,2.458,2.4608,2.4622,2.4632,2.4629,2.4453,0,0,0,0,0,2.4347,2.4387,2.4398,2.4461,2.4472,2.4472,2.4493,2.4484,2.4505,2.4513,2.4521,2.4541,2.4576,2.46,2.4632,2.4709,2.4712,2.4744,2.4755,2.4764,2.4772,2.4813,2.4827,2.4673,2.4673,2.4673,0,0,2.4387,2.4401,2.4427,2.4472,2.4486,2.4527,2.448,2.4525,2.4554,2.4519,2.4577,2.4584,2.4606,2.4675,2.4705,2.4683,2.4815,2.4773,2.478,2.4782,2.4821,2.4836,2.4849,2.4678,2.4677,2.4676,0,0,2.4481,2.4497,2.4551,2.4567,2.4591,2.4591,2.4604,2.4622,2.4626,2.4684,2.4659,2.4694,2.4755,2.4772,2.4788,2.4892,2.4869,2.4903,2.4959,2.5,2.5012,2.5022,2.5059,2.5072,2.4911,2.4911,2.4911,0,2.4528,2.459,2.458,2.4628,2.4648,2.462,2.4674,2.4691,2.4724,2.4738,2.4713,2.479,2.4802,2.4875,2.49,2.4915,2.4929,2.4899,2.5011,2.5022,2.5031,2.5066,2.508,2.4915,2.4914,2.4914,2.4913,0,2.4646,2.4689,2.473,2.4764,2.4789,2.484,2.4838,2.4864,2.4854,2.4856,2.4916,2.493,2.4966,2.4983,2.4972,2.5054,2.5039,2.5013,2.4967,2.505,2.5082,2.5095,2.492,2.4919,2.4918,2.4917,0,0,2.4771,2.4801,2.4816,2.4832,2.4857,2.489,2.494,2.4976,2.4999,2.5023,2.5064,2.5117,2.5094,2.5112,2.5104,2.5139,2.522,2.5109,2.5109,2.5128,2.5311,2.533,2.5346,2.5207,2.5209,2.5211,2.5309,0,2.4865,2.4953,2.4946,2.5028,2.5068,2.5043,2.5086,2.5106,2.5111,2.5144,2.5148,2.5186,2.5153,2.5164,2.5198,2.5203,2.5257,2.5196,2.5243,2.5245,2.5237,2.5363,2.5382,2.5474,2.5322,2.5324,2.5326,0,2.4987,2.5017,2.5104,2.5124,2.5141,2.518,2.5213,2.5246,2.5268,2.5269,2.5291,2.5277,2.5327,2.5282,2.535,2.5309,2.5328,2.5334,2.5337,2.534,2.5289,2.5368,2.5503,2.5517,2.5345,2.5344,2.5342,0,2.5068,2.5131,2.5191,2.5205,2.5231,2.5259,2.5271,2.5291,2.5314,2.5343,2.5357,2.5391,2.541,2.5436,2.5432,2.5399,2.5501,2.5456,2.5502,2.5502,2.5523,2.5522,2.5663,2.5538,2.5538,2.5538,2.5537,0,2.5174,2.5227,2.5228,2.5264,2.5324,2.5317,2.5375,2.5384,2.5403,2.544,2.5421,2.5456,2.5449,2.5484,2.5481,2.5538,2.5546,2.5548,2.5546,2.5549,2.5549,2.556,2.5553,2.5541,2.554,2.554,2.5539,0,2.5274,2.5277,2.534,2.5361,2.5367,2.541,2.5427,2.5461,2.5465,2.5513,2.5523,2.5529,2.5569,2.5568,2.5614,2.5612,2.5682,2.5673,2.5674,2.5672,2.5719,2.5714,2.5871,2.5891,2.5754,2.5756,2.5757,0,2.5341,2.5381,2.5407,2.5431,2.5446,2.5485,2.5509,2.5504,2.5529,2.5559,2.559,2.5629,2.566,2.5726,2.5734,2.5769,2.576,2.5813,2.5765,2.5767,2.576,2.5757,2.5761,2.5822,2.5823,2.5824,2.5825,0,2.5458,2.5458,2.5493,2.553,2.5559,2.5586,2.5612,2.5633,2.5631,2.566,2.5702,2.5727,2.5775,2.5814,2.5848,2.586,2.5842,2.5841,2.5853,2.5856,2.5855,2.5855,2.5699,2.5837,2.5836,2.5835,2.5834,2.5834,2.5543,2.5578,2.5602,2.5642,2.5662,2.5687,2.572,2.5729,2.5765,2.5804,2.5799,2.5846,2.5869,2.5913,2.5928,2.5965,2.5946,2.5964,2.5969,2.5973,2.5978,2.585,2.5971,2.5971,2.597,2.597,2.597,0,2.5659,2.5673,2.5711,2.5748,2.578,2.5763,2.5791,2.5818,2.586,2.5884,2.5915,2.5964,2.6003,2.6014,2.6051,2.6078,2.6071,2.6088,2.6085,2.6088,2.5993,2.5978,2.6093,2.6093,2.6093,2.6093,2.6093,2.6093,2.5722,2.5782,2.5785,2.5854,2.5868,2.5915,2.5932,2.5955,2.5974,2.603,2.6062,2.607,2.6089,2.6127,2.6162,2.6164,2.6178,2.6198,2.6198,2.6108,2.6095,2.6083,2.6069,2.6202,2.6202,2.629,2.6291,2.6291]}]]